| time (UTC) | temp F | wind direction | speed MPH | gust MPH | rain 1hr in | rain 24hr in | rain mn in | humidity % | barometer mb |
| 20260505032024 | 74 | 209 | 4.0 | 10.0 | 0.00 | 0.00 | 0.00 | 42 | 1009.2 |
| 20260505031544 | 74 | 190 | 4.0 | 9.0 | 0.00 | 0.00 | 0.00 | 42 | 1009.2 |
| 20260505031027 | 74 | 219 | 4.0 | 9.0 | 0.00 | 0.00 | 0.00 | 42 | 1009.2 |
| 20260505030525 | 74 | 196 | 2.0 | 8.0 | 0.00 | 0.00 | 0.00 | 41 | 1009.3 |
| 20260505030041 | 74 | 214 | 4.0 | 8.0 | 0.00 | 0.00 | 0.00 | 41 | 1009.2 |
| 20260505025526 | 74 | 218 | 4.0 | 10.0 | 0.00 | 0.00 | 0.00 | 40 | 1009.3 |
| 20260505025025 | 74 | 216 | 6.0 | 10.0 | 0.00 | 0.00 | 0.00 | 39 | 1009.2 |
| 20260505024539 | 75 | 198 | 4.0 | 8.0 | 0.00 | 0.00 | 0.00 | 39 | 1009.2 |
| 20260505024026 | 75 | 198 | 3.0 | 8.0 | 0.00 | 0.00 | 0.00 | 38 | 1009.1 |
| 20260505023524 | 75 | 205 | 3.0 | 8.0 | 0.00 | 0.00 | 0.00 | 38 | 1009.1 |
| 20260505023050 | 75 | 230 | 3.0 | 10.0 | 0.00 | 0.00 | 0.00 | 38 | 1009.2 |
| 20260505022524 | 75 | 230 | 4.0 | 10.0 | 0.00 | 0.00 | 0.00 | 36 | 1009.3 |
| 20260505022025 | 75 | 178 | 5.0 | 10.0 | 0.00 | 0.00 | 0.00 | 36 | 1009.4 |
| 20260505021544 | 75 | 196 | 5.0 | 11.0 | 0.00 | 0.00 | 0.00 | 36 | 1009.2 |
| 20260505021025 | 75 | 250 | 4.0 | 11.0 | 0.00 | 0.00 | 0.00 | 37 | 1009.2 |
| 20260505020526 | 76 | 232 | 3.0 | 8.0 | 0.00 | 0.00 | 0.00 | 37 | 1009.1 |
| 20260505020040 | 76 | 209 | 4.0 | 8.0 | 0.00 | 0.00 | 0.00 | 36 | 1008.9 |
| 20260505015525 | 76 | 271 | 3.0 | 7.0 | 0.00 | 0.00 | 0.00 | 36 | 1009.0 |
| 20260505015025 | 76 | 243 | 2.0 | 7.0 | 0.00 | 0.00 | 0.00 | 36 | 1008.8 |
| 20260505014540 | 76 | 196 | 2.0 | 7.0 | 0.00 | 0.00 | 0.00 | 36 | 1008.7 |
| 20260505014024 | 76 | 246 | 3.0 | 7.0 | 0.00 | 0.00 | 0.00 | 36 | 1008.6 |
| 20260505013524 | 76 | 209 | 1.0 | 6.0 | 0.00 | 0.00 | 0.00 | 36 | 1008.6 |
| 20260505013039 | 76 | 298 | 2.0 | 7.0 | 0.00 | 0.00 | 0.00 | 36 | 1008.6 |
| 20260505012524 | 76 | 227 | 2.0 | 7.0 | 0.00 | 0.00 | 0.00 | 36 | 1008.8 |
| 20260505012024 | 77 | 215 | 2.0 | 6.0 | 0.00 | 0.00 | 0.00 | 36 | 1008.7 |
| 20260505011548 | 77 | 284 | 1.0 | 7.0 | 0.00 | 0.00 | 0.00 | 35 | 1008.7 |
| 20260505011027 | 77 | 279 | 2.0 | 7.0 | 0.00 | 0.00 | 0.00 | 35 | 1008.8 |
| 20260505010525 | 77 | 265 | 1.0 | 8.0 | 0.00 | 0.00 | 0.00 | 36 | 1008.8 |
| 20260505005525 | 77 | 274 | 3.0 | 8.0 | 0.00 | 0.00 | 0.00 | 36 | 1008.8 |
| 20260505005026 | 77 | 281 | 2.0 | 6.0 | 0.00 | 0.00 | 0.00 | 37 | 1008.7 |
| 20260505004540 | 77 | 270 | 2.0 | 6.0 | 0.00 | 0.00 | 0.00 | 36 | 1008.8 |
| 20260505004026 | 77 | 204 | 2.0 | 6.0 | 0.00 | 0.00 | 0.00 | 35 | 1008.7 |
| 20260505003524 | 77 | 232 | 2.0 | 6.0 | 0.00 | 0.00 | 0.00 | 35 | 1008.7 |
| 20260505003043 | 77 | 301 | 2.0 | 5.0 | 0.00 | 0.00 | 0.00 | 36 | 1008.7 |
| 20260505002524 | 77 | 322 | 2.0 | 8.0 | 0.00 | 0.00 | 0.00 | 36 | 1008.8 |
| 20260505002024 | 77 | 285 | 1.0 | 8.0 | 0.00 | 0.00 | 0.00 | 36 | 1008.7 |
| 20260505001539 | 77 | 268 | 4.0 | 8.0 | 0.00 | 0.00 | 0.00 | 36 | 1008.8 |
| 20260505001024 | 77 | 342 | 3.0 | 8.0 | 0.00 | 0.00 | 0.00 | 36 | 1008.8 |
| 20260505000525 | 77 | 292 | 2.0 | 10.0 | 0.00 | 0.00 | 0.00 | 36 | 1008.9 |
| 20260505000048 | 77 | 261 | 5.0 | 10.0 | 0.00 | 0.00 | 0.00 | 36 | 1009.1 |
| 20260504235526 | 77 | 315 | 4.0 | 9.0 | 0.00 | 0.00 | 0.00 | 36 | 1009.0 |
| 20260504235025 | 77 | 299 | 4.0 | 10.0 | 0.00 | 0.00 | 0.00 | 36 | 1009.0 |
| 20260504234543 | 77 | 269 | 4.0 | 10.0 | 0.00 | 0.00 | 0.00 | 36 | 1009.1 |
| 20260504234026 | 77 | 286 | 4.0 | 9.0 | 0.00 | 0.00 | 0.00 | 36 | 1009.2 |
| 20260504233525 | 77 | 301 | 4.0 | 9.0 | 0.00 | 0.00 | 0.00 | 36 | 1009.2 |
| 20260504233040 | 77 | 247 | 3.0 | 9.0 | 0.00 | 0.00 | 0.00 | 36 | 1009.1 |
| 20260504232550 | 77 | 300 | 4.0 | 8.0 | 0.00 | 0.00 | 0.00 | 37 | 1008.9 |
| 20260504232024 | 78 | 289 | 3.0 | 8.0 | 0.00 | 0.00 | 0.00 | 37 | 1008.8 |
| 20260504231544 | 78 | 289 | 1.0 | 6.0 | 0.00 | 0.00 | 0.00 | 36 | 1008.8 |
| 20260504231024 | 78 | 266 | 2.0 | 10.0 | 0.00 | 0.00 | 0.00 | 36 | 1008.9 |
| 20260504230524 | 78 | 269 | 4.0 | 10.0 | 0.00 | 0.00 | 0.00 | 36 | 1009.0 |
| 20260504230044 | 78 | 253 | 3.0 | 8.0 | 0.00 | 0.00 | 0.00 | 36 | 1009.0 |
| 20260504225525 | 78 | 288 | 3.0 | 11.0 | 0.00 | 0.00 | 0.00 | 37 | 1009.1 |
| 20260504225024 | 78 | 267 | 4.0 | 11.0 | 0.00 | 0.00 | 0.00 | 37 | 1009.2 |
| 20260504224538 | 78 | 285 | 5.0 | 11.0 | 0.00 | 0.00 | 0.00 | 37 | 1009.2 |
| 20260504224024 | 78 | 292 | 7.0 | 11.0 | 0.00 | 0.00 | 0.00 | 37 | 1009.4 |
| 20260504223525 | 78 | 302 | 4.0 | 9.0 | 0.00 | 0.00 | 0.00 | 37 | 1009.4 |
| 20260504223050 | 78 | 284 | 5.0 | 9.0 | 0.00 | 0.00 | 0.00 | 37 | 1009.3 |
| 20260504222523 | 78 | 294 | 3.0 | 12.0 | 0.00 | 0.00 | 0.00 | 37 | 1009.3 |
| 20260504222024 | 78 | 213 | 5.0 | 12.0 | 0.00 | 0.00 | 0.00 | 38 | 1009.1 |
| 20260504221554 | 77 | 234 | 3.0 | 13.0 | 0.00 | 0.00 | 0.00 | 39 | 1009.1 |
| 20260504221025 | 77 | 171 | 4.0 | 13.0 | 0.00 | 0.00 | 0.00 | 38 | 1009.1 |
| 20260504220528 | 77 | 214 | 6.0 | 13.0 | 0.00 | 0.00 | 0.00 | 38 | 1009.3 |
| 20260504220042 | 77 | 215 | 4.0 | 10.0 | 0.00 | 0.00 | 0.00 | 38 | 1009.6 |
| 20260504215525 | 77 | 219 | 4.0 | 10.0 | 0.00 | 0.00 | 0.00 | 38 | 1009.6 |
| 20260504215024 | 78 | 227 | 2.0 | 10.0 | 0.00 | 0.00 | 0.00 | 38 | 1009.8 |
| 20260504214539 | 78 | 236 | 4.0 | 10.0 | 0.00 | 0.00 | 0.00 | 37 | 1009.8 |
| 20260504214024 | 78 | 272 | 3.0 | 9.0 | 0.00 | 0.00 | 0.00 | 37 | 1010.0 |
| 20260504213524 | 78 | 229 | 3.0 | 10.0 | 0.00 | 0.00 | 0.00 | 38 | 1010.3 |
| 20260504213059 | 77 | 219 | 3.0 | 10.0 | 0.00 | 0.00 | 0.00 | 37 | 1010.5 |
| 20260504212524 | 78 | 241 | 6.0 | 10.0 | 0.00 | 0.00 | 0.00 | 37 | 1010.7 |
| 20260504212025 | 78 | 229 | 4.0 | 13.0 | 0.00 | 0.00 | 0.00 | 37 | 1010.6 |
| 20260504211547 | 78 | 235 | 3.0 | 13.0 | 0.00 | 0.00 | 0.00 | 37 | 1010.6 |
| 20260504211025 | 78 | 215 | 6.0 | 15.0 | 0.00 | 0.00 | 0.00 | 37 | 1010.4 |
| 20260504210525 | 78 | 232 | 4.0 | 15.0 | 0.00 | 0.00 | 0.00 | 37 | 1010.6 |
| 20260504210041 | 78 | 229 | 6.0 | 15.0 | 0.00 | 0.00 | 0.00 | 37 | 1010.5 |
| 20260504205525 | 78 | 208 | 4.0 | 14.0 | 0.00 | 0.00 | 0.00 | 37 | 1010.5 |
| 20260504205024 | 78 | 317 | 5.0 | 11.0 | 0.00 | 0.00 | 0.00 | 37 | 1010.6 |
| 20260504204538 | 78 | 205 | 5.0 | 11.0 | 0.00 | 0.00 | 0.00 | 37 | 1010.5 |
| 20260504204024 | 78 | 267 | 4.0 | 12.0 | 0.00 | 0.00 | 0.00 | 37 | 1010.4 |
| 20260504203526 | 78 | 276 | 5.0 | 12.0 | 0.00 | 0.00 | 0.00 | 36 | 1010.4 |
| 20260504203048 | 78 | 266 | 3.0 | 11.0 | 0.00 | 0.00 | 0.00 | 37 | 1010.4 |
| 20260504202525 | 78 | 223 | 4.0 | 11.0 | 0.00 | 0.00 | 0.00 | 36 | 1010.4 |
| 20260504202024 | 78 | 254 | 4.0 | 11.0 | 0.00 | 0.00 | 0.00 | 37 | 1010.3 |
| 20260504201538 | 78 | 299 | 5.0 | 10.0 | 0.00 | 0.00 | 0.00 | 36 | 1010.4 |
| 20260504201024 | 78 | 252 | 4.0 | 15.0 | 0.00 | 0.00 | 0.00 | 37 | 1010.6 |
| 20260504200525 | 78 | 271 | 5.0 | 15.0 | 0.00 | 0.00 | 0.00 | 37 | 1010.4 |
| 20260504200036 | 78 | 227 | 4.0 | 10.0 | 0.00 | 0.00 | 0.00 | 37 | 1010.4 |
| 20260504195525 | 78 | 264 | 4.0 | 15.0 | 0.00 | 0.00 | 0.00 | 36 | 1010.5 |
| 20260504195024 | 78 | 215 | 4.0 | 15.0 | 0.00 | 0.00 | 0.00 | 37 | 1010.6 |
| 20260504194544 | 78 | 215 | 5.0 | 13.0 | 0.00 | 0.00 | 0.00 | 36 | 1010.6 |
| 20260504194024 | 78 | 291 | 3.0 | 12.0 | 0.00 | 0.00 | 0.00 | 36 | 1010.6 |
| 20260504193527 | 78 | 229 | 5.0 | 13.0 | 0.00 | 0.00 | 0.00 | 36 | 1010.7 |
| 20260504193039 | 78 | 240 | 6.0 | 13.0 | 0.00 | 0.00 | 0.00 | 36 | 1010.7 |
| 20260504192523 | 78 | 228 | 5.0 | 13.0 | 0.00 | 0.00 | 0.00 | 36 | 1010.7 |
| 20260504192026 | 79 | 277 | 7.0 | 14.0 | 0.00 | 0.00 | 0.00 | 36 | 1010.7 |
| 20260504191541 | 79 | 274 | 2.0 | 14.0 | 0.00 | 0.00 | 0.00 | 36 | 1010.6 |
| 20260504191024 | 78 | 215 | 5.0 | 14.0 | 0.00 | 0.00 | 0.00 | 36 | 1010.3 |
| 20260504190523 | 79 | 277 | 5.0 | 11.0 | 0.00 | 0.00 | 0.00 | 35 | 1010.3 |
| 20260504190039 | 79 | 278 | 5.0 | 11.0 | 0.00 | 0.00 | 0.00 | 36 | 1010.2 |
| 20260504185524 | 79 | 293 | 5.0 | 10.0 | 0.00 | 0.00 | 0.00 | 36 | 1010.2 |
| 20260504185028 | 79 | 228 | 2.0 | 10.0 | 0.00 | 0.00 | 0.00 | 35 | 1010.2 |
| 20260504184543 | 79 | 252 | 4.0 | 13.0 | 0.00 | 0.00 | 0.00 | 36 | 1010.2 |
| 20260504184028 | 78 | 222 | 3.0 | 13.0 | 0.00 | 0.00 | 0.00 | 36 | 1010.3 |
| 20260504183524 | 78 | 333 | 6.0 | 13.0 | 0.00 | 0.00 | 0.00 | 36 | 1010.6 |
| 20260504183043 | 78 | 282 | 2.0 | 14.0 | 0.00 | 0.00 | 0.00 | 36 | 1010.7 |
| 20260504182523 | 78 | 220 | 7.0 | 14.0 | 0.00 | 0.00 | 0.00 | 38 | 1010.8 |
| 20260504182025 | 78 | 225 | 4.0 | 13.0 | 0.00 | 0.00 | 0.00 | 38 | 1010.7 |
| 20260504181539 | 78 | 199 | 5.0 | 15.0 | 0.00 | 0.00 | 0.00 | 38 | 1010.6 |
| 20260504181027 | 77 | 195 | 3.0 | 16.0 | 0.00 | 0.00 | 0.00 | 39 | 1010.3 |
| 20260504180525 | 77 | 215 | 7.0 | 16.0 | 0.00 | 0.00 | 0.00 | 38 | 1010.7 |
| 20260504180046 | 77 | 209 | 5.0 | 14.0 | 0.00 | 0.00 | 0.00 | 38 | 1010.5 |
| 20260504175526 | 77 | 203 | 5.0 | 12.0 | 0.00 | 0.00 | 0.00 | 36 | 1010.4 |
| 20260504175025 | 77 | 202 | 4.0 | 12.0 | 0.00 | 0.00 | 0.00 | 36 | 1010.4 |
| 20260504174543 | 78 | 239 | 5.0 | 12.0 | 0.00 | 0.00 | 0.00 | 36 | 1010.6 |
| 20260504174024 | 77 | 237 | 5.0 | 12.0 | 0.00 | 0.00 | 0.00 | 37 | 1010.4 |
| 20260504173524 | 77 | 165 | 5.0 | 10.0 | 0.00 | 0.00 | 0.00 | 37 | 1010.6 |
| 20260504173040 | 77 | 221 | 3.0 | 16.0 | 0.00 | 0.00 | 0.00 | 37 | 1010.6 |
| 20260504172524 | 77 | 169 | 7.0 | 16.0 | 0.00 | 0.00 | 0.00 | 37 | 1010.6 |
| 20260504172024 | 77 | 217 | 5.0 | 15.0 | 0.00 | 0.00 | 0.00 | 37 | 1010.8 |
| 20260504171539 | 77 | 251 | 7.0 | 15.0 | 0.00 | 0.00 | 0.00 | 37 | 1011.0 |
| 20260504171024 | 77 | 254 | 5.0 | 14.0 | 0.00 | 0.00 | 0.00 | 37 | 1010.9 |
| 20260504170524 | 77 | 240 | 6.0 | 13.0 | 0.00 | 0.00 | 0.00 | 37 | 1010.9 |
| 20260504151024 | 73 | 182 | 3.0 | 9.0 | 0.00 | 0.00 | 0.00 | 45 | 1010.3 |
| 20260504150524 | 73 | 173 | 2.0 | 9.0 | 0.00 | 0.00 | 0.00 | 45 | 1010.2 |
| 20260504141024 | 71 | 213 | 5.0 | 12.0 | 0.00 | 0.00 | 0.00 | 48 | 1009.9 |
| 20260504140524 | 71 | 194 | 5.0 | 13.0 | 0.00 | 0.00 | 0.00 | 48 | 1010.0 |
| 20260504130524 | 71 | 184 | 1.0 | 6.0 | 0.00 | 0.00 | 0.00 | 45 | 1009.5 |
| 20260504110524 | 72 | 181 | 2.0 | 6.0 | 0.00 | 0.00 | 0.00 | 42 | 1008.9 |
| 20260504100524 | 73 | 0 | 0.0 | 2.0 | 0.00 | 0.00 | 0.00 | 43 | 1009.0 |
| 20260504081548 | 74 | 288 | 0.0 | 2.0 | 0.00 | 0.00 | 0.00 | 42 | 1008.7 |
| 20260504081029 | 74 | 0 | 0.0 | 2.0 | 0.00 | 0.00 | 0.00 | 43 | 1008.7 |
| 20260504080525 | 74 | 0 | 0.0 | 2.0 | 0.00 | 0.00 | 0.00 | 42 | 1008.7 |
| 20260504050526 | 79 | 223 | 10.0 | 24.0 | 0.00 | 0.00 | 0.00 | 29 | 1008.2 |
| 20260504045522 | 80 | 220 | 8.0 | 16.0 | 0.00 | 0.00 | 0.00 | 28 | 1008.3 |
| 20260504045024 | 80 | 248 | 7.0 | 19.0 | 0.00 | 0.00 | 0.00 | 28 | 1008.2 |
| 20260504044539 | 80 | 166 | 6.0 | 19.0 | 0.00 | 0.00 | 0.00 | 27 | 1008.2 |
| 20260504044025 | 80 | 219 | 7.0 | 19.0 | 0.00 | 0.00 | 0.00 | 27 | 1008.2 |
| 20260504043524 | 80 | 219 | 9.0 | 19.0 | 0.00 | 0.00 | 0.00 | 26 | 1008.2 |
| 20260504043042 | 80 | 232 | 8.0 | 17.0 | 0.00 | 0.00 | 0.00 | 26 | 1008.1 |
| 20260504042525 | 80 | 206 | 7.0 | 16.0 | 0.00 | 0.00 | 0.00 | 26 | 1008.0 |
| 20260504042024 | 80 | 199 | 9.0 | 16.0 | 0.00 | 0.00 | 0.00 | 25 | 1007.8 |
| 20260504041542 | 81 | 212 | 7.0 | 17.0 | 0.00 | 0.00 | 0.00 | 25 | 1007.9 |
| 20260504041024 | 81 | 202 | 8.0 | 19.0 | 0.00 | 0.00 | 0.00 | 25 | 1007.8 |
| 20260504040525 | 81 | 232 | 7.0 | 19.0 | 0.00 | 0.00 | 0.00 | 25 | 1007.7 |
| 20260504040107 | 81 | 200 | 7.0 | 18.0 | 0.00 | 0.00 | 0.00 | 24 | 1007.5 |
| 20260504035525 | 81 | 236 | 7.0 | 18.0 | 0.00 | 0.00 | 0.00 | 24 | 1007.5 |
| 20260504035025 | 81 | 197 | 6.0 | 18.0 | 0.00 | 0.00 | 0.00 | 24 | 1007.4 |
| 20260504034542 | 82 | 229 | 7.0 | 18.0 | 0.00 | 0.00 | 0.00 | 24 | 1007.2 |
| 20260504034024 | 82 | 205 | 7.0 | 15.0 | 0.00 | 0.00 | 0.00 | 23 | 1006.9 |
| 20260504033521 | 82 | 217 | 5.0 | 18.0 | 0.00 | 0.00 | 0.00 | 23 | 1006.9 |
| 20260504033038 | 83 | 219 | 7.0 | 18.0 | 0.00 | 0.00 | 0.00 | 22 | 1006.8 |
| 20260504032528 | 83 | 260 | 6.0 | 16.0 | 0.00 | 0.00 | 0.00 | 22 | 1006.7 |